Sergeant Bluff, IA

7:34 PM CDT on September 29, 2016 (GMT -0500)
Sioux Gateway

Weather History for KSUX - August, 2014

Change the Weather History Date:

Wednesday, August 20, 2014

  Actual Average Record
Temperature  
Mean Temperature 76 °F 72 °F  
Max Temperature 83 °F 83 °F 101 °F (1947)
Min Temperature 68 °F 61 °F 37 °F (1950)
Degree Days  
Heating Degree Days 0 0  
Month to date heating degree days 0 0  
Since 1 June heating degree days 26 30  
Since 1 July heating degree days 6 3  
Cooling Degree Days 11 7  
Month to date cooling degree days 158 164  
Year to date cooling degree days 667 709  
Since 1 June cooling degree days 546 645  
Growing Degree Days 25 (Base 50)    
Moisture  
Dew Point 68 °F    
Average Humidity 86    
Maximum Humidity 93    
Minimum Humidity 79    
Precipitation  
Precipitation 2.12 in 0.10 in 2.12 in (2014)
Month to date precipitation 6.39 2.07  
Year to date precipitation 31.90 19.38  
Snow  
Snow 0.00 in 0.00 in 0.00 in ()
Month to date snowfall 0.0 0.0  
Since 1 June snowfall 0.0 0.0  
Since 1 July snowfall 0.0 0.0  
Snow Depth 0.00 in    
Sea Level Pressure  
Sea Level Pressure 29.77 in    
Wind  
Wind Speed 9 mph (ESE)    
Max Wind Speed 38 mph    
Max Gust Speed 46 mph    
Visibility 8 miles    
Events Fog , Rain , Thunderstorm    
T = Trace of Precipitation, MM = Missing Value Source: NWS Daily Summary

Daily Weather History Graph

Daily Weather History Graph

Search for Another Location

Airport or City:

Trip Planner

Search our weather history database for the weather conditions in past years. The results will help you decide how hot, cold, wet, or windy it might be!

Date:

Astronomy

Aug. 20, 2014 Rise Set
Actual Time 6:37 AM CDT 8:18 PM CDT
Civil Twilight 6:08 AM CDT 8:48 PM CDT
Nautical Twilight 5:31 AM CDT 9:24 PM CDT
Astronomical Twilight 4:52 AM CDT 10:03 PM CDT
Moon 2:16 AM CDT (8/20) 5:06 PM CDT (8/20)
Length of Visible Light 14h 40m
Length of Day
13h 41m
Waning Crescent, 20% of the Moon is Illuminated
Aug 20
Waning Crescent
Aug 25
New
Sep 2
First Quarter
Sep 8
Full
Sep 15
Last Quarter

Hourly Weather History & Observations

Time (CDT) Temp. Heat Index Dew Point Humidity Pressure Visibility Wind Dir Wind Speed Gust Speed Precip Events Conditions
12:52 AM 69.1 °F - 64.9 °F 87% 29.79 in 10.0 mi SE 4.6 mph - N/A   Clear
1:52 AM 69.1 °F - 66.0 °F 90% 29.77 in 10.0 mi East 4.6 mph - N/A   Clear
2:52 AM 69.1 °F - 66.0 °F 90% 29.75 in 10.0 mi SE 4.6 mph - N/A   Overcast
3:15 AM 70.0 °F - 66.0 °F 87% 29.79 in 10.0 mi Calm Calm - N/A Thunderstorm Mostly Cloudy
3:24 AM 69.1 °F - 66.0 °F 90% 29.81 in 1.5 mi Variable 6.9 mph 25.3 mph 0.00 in Rain , Thunderstorm Light Rain
3:31 AM 68.0 °F - 66.0 °F 93% 29.78 in 0.8 mi SE 12.7 mph - 0.43 in Rain , Thunderstorm Heavy Rain
3:36 AM 68.0 °F - 66.0 °F 93% 29.77 in 2.0 mi SE 10.4 mph - 0.56 in Rain , Thunderstorm Light Rain
3:38 AM 68.0 °F - 66.0 °F 93% 29.78 in 3.0 mi ESE 8.1 mph - 0.56 in Rain , Thunderstorm Light Rain
3:52 AM 68.0 °F - 64.9 °F 90% 29.74 in 10.0 mi East 8.1 mph - 0.56 in Rain , Thunderstorm Light Rain
4:00 AM 68.0 °F - 64.9 °F 90% 29.76 in 10.0 mi ENE 6.9 mph - 0.00 in Thunderstorm Scattered Clouds
4:32 AM 69.1 °F - 66.0 °F 90% 29.79 in 9.0 mi North 9.2 mph - 0.00 in Rain , Thunderstorm Light Thunderstorms and Rain
4:36 AM 69.1 °F - 66.9 °F 93% 29.77 in 1.8 mi NE 10.4 mph - 0.03 in Rain , Thunderstorm Heavy Thunderstorms and Rain
4:46 AM 69.8 °F - 66.2 °F 88% 29.76 in 3.0 mi East 11.5 mph - 0.16 in Rain , Thunderstorm Thunderstorms and Rain
4:52 AM 71.1 °F - 66.9 °F 87% 29.73 in 7.0 mi ESE 13.8 mph - 0.17 in Rain , Thunderstorm Light Thunderstorms and Rain
5:05 AM 71.1 °F - 66.9 °F 87% 29.78 in 2.0 mi Variable 6.9 mph - 0.28 in Rain , Thunderstorm Heavy Thunderstorms and Rain
5:14 AM 70.0 °F - 66.9 °F 90% 29.83 in 1.0 mi NW 38.0 mph 46.0 mph 0.49 in Rain , Thunderstorm Heavy Thunderstorms and Rain
5:21 AM 69.1 °F - 66.0 °F 90% 29.83 in 0.5 mi NNW 25.3 mph 46.0 mph 0.89 in Fog , Rain , Thunderstorm Heavy Thunderstorms and Rain
5:31 AM 69.1 °F - 64.0 °F 84% 29.83 in 2.0 mi North 25.3 mph 38.0 mph 1.12 in Rain , Thunderstorm Heavy Thunderstorms and Rain
5:39 AM 69.1 °F - 63.0 °F 81% 29.79 in 3.0 mi East 16.1 mph 33.4 mph 1.23 in Rain , Thunderstorm Thunderstorms and Rain
5:48 AM 69.8 °F - 62.6 °F 78% 29.78 in 8.0 mi ESE 8.1 mph - 1.25 in Rain , Thunderstorm Light Thunderstorms and Rain
5:52 AM 70.0 °F - 64.0 °F 81% 29.73 in 9.0 mi NE 12.7 mph - 1.26 in Rain , Thunderstorm Light Thunderstorms and Rain
6:01 AM 70.0 °F - 64.0 °F 81% 29.74 in 10.0 mi ESE 10.4 mph - 0.01 in Rain , Thunderstorm Light Rain
6:25 AM 71.1 °F - 64.0 °F 78% 29.79 in 10.0 mi SSE 6.9 mph - 0.01 in Thunderstorm Thunderstorm
6:42 AM 71.1 °F - 64.9 °F 81% 29.79 in 10.0 mi SE 8.1 mph - 0.01 in   Scattered Clouds
6:52 AM 71.1 °F - 64.9 °F 81% 29.75 in 10.0 mi ESE 10.4 mph - 0.01 in Rain Light Rain
7:52 AM 70.0 °F - 66.0 °F 87% 29.75 in 10.0 mi South 9.2 mph - 0.00 in   Mostly Cloudy
8:52 AM 71.1 °F - 66.0 °F 84% 29.80 in 10.0 mi SSW 6.9 mph - 0.00 in   Mostly Cloudy
9:52 AM 73.0 °F - 66.9 °F 81% 29.79 in 10.0 mi Variable 3.5 mph - 0.00 in   Scattered Clouds
10:52 AM 72.0 °F - 66.9 °F 84% 29.80 in 10.0 mi SSE 6.9 mph - 0.00 in Rain Light Rain
11:19 AM 72.0 °F - 68.0 °F 87% 29.84 in 10.0 mi SSE 8.1 mph - 0.00 in Thunderstorm Scattered Clouds
11:52 AM 71.1 °F - 68.0 °F 90% 29.84 in 5.0 mi NNE 6.9 mph - 0.02 in Rain Rain
12:52 PM 72.0 °F - 69.1 °F 91% 29.80 in 10.0 mi SSE 9.2 mph 17.3 mph 0.06 in   Partly Cloudy
1:52 PM 73.0 °F - 70.0 °F 90% 29.78 in 10.0 mi SSE 8.1 mph 21.9 mph 0.03 in Rain Light Rain
2:52 PM 73.9 °F - 71.1 °F 91% 29.78 in 10.0 mi SE 8.1 mph - 0.01 in Rain Light Rain
3:52 PM 75.2 °F - 71.6 °F 89% 29.79 in 10.0 mi ESE 6.9 mph - N/A   Clear
4:52 PM 80.1 °F 84.2 °F 73.0 °F 79% 29.75 in 10.0 mi SE 10.4 mph - N/A   Clear
5:52 PM 81.0 °F 86.2 °F 73.9 °F 79% 29.73 in 10.0 mi SE 12.7 mph - N/A   Clear
6:52 PM 82.9 °F 90.2 °F 75.0 °F 77% 29.73 in 10.0 mi SE 10.4 mph - N/A   Clear
7:52 PM 81.0 °F 87.3 °F 75.9 °F 85% 29.73 in 10.0 mi SE 6.9 mph - N/A   Clear
8:52 PM 80.1 °F 85.1 °F 75.0 °F 85% 29.74 in 10.0 mi ESE 8.1 mph - N/A   Clear
9:52 PM 78.8 °F - 75.2 °F 89% 29.76 in 10.0 mi ESE 10.4 mph - N/A   Clear
10:52 PM 78.1 °F - 73.9 °F 87% 29.74 in 10.0 mi ESE 9.2 mph - N/A   Clear
11:52 PM 77.0 °F - 73.4 °F 89% 29.75 in 10.0 mi SE 9.2 mph - N/A   Clear